This is the latest recevied weather packets stored in our database for station/object KD2SIG. If no packets are shown the sender has not sent any weather packets the latest 10 day(s).
| Time | Temp. | Humidity | Pressure | Rain* | Wind** | Luminosity | Snow |
|---|---|---|---|---|---|---|---|
| 1777560986 | 6.67° C | 96% | 1009.3 hPa | 0 mm | - | 94 W/m² | - |
| 1777560682 | 6.11° C | 96% | 1009.3 hPa | 0 mm | - | 97 W/m² | - |
| 1777560380 | 6.67° C | 96% | 1009.6 hPa | 0 mm | - | 112 W/m² | - |
| 1777560078 | 6.11° C | 96% | 1009.5 hPa | 0 mm | - | 85 W/m² | - |
| 1777559774 | 6.11° C | 96% | 1009.5 hPa | 0 mm | - | 87 W/m² | - |
| 1777559471 | 6.11° C | 97% | 1009.6 hPa | 0 mm | - | 107 W/m² | - |
| 1777559168 | 6.11° C | 97% | 1009.5 hPa | 0 mm | - | 92 W/m² | - |
| 1777558868 | 6.11° C | 97% | 1009.1 hPa | 0 mm | - | 110 W/m² | - |
| 1777558564 | 6.11° C | 97% | 1009.3 hPa | 0 mm | - | 85 W/m² | - |
| 1777558259 | 6.11° C | 97% | 1009.2 hPa | 0 mm | - | 73 W/m² | - |
| 1777557956 | 6.11° C | 97% | 1009.2 hPa | 0 mm | - | 97 W/m² | - |
| 1777557653 | 6.11° C | 97% | 1009.2 hPa | 0 mm | - | 88 W/m² | - |
| 1777557349 | 6.11° C | 97% | 1009.1 hPa | 0 mm | - | 70 W/m² | - |
| 1777557045 | 6.11° C | 97% | 1009.3 hPa | 0 mm | - | 75 W/m² | - |
| 1777556741 | 6.11° C | 97% | 1009.4 hPa | 0 mm | - | 82 W/m² | - |
| 1777556438 | 6.11° C | 97% | 1009.3 hPa | 0 mm | - | 85 W/m² | - |
| 1777556138 | 6.11° C | 97% | 1009.4 hPa | 0 mm | - | 88 W/m² | - |
| 1777555833 | 6.11° C | 97% | 1009.3 hPa | 0 mm | - | 81 W/m² | - |
| 1777555529 | 5.56° C | 97% | 1009.3 hPa | 0 mm | - | 72 W/m² | - |
| 1777555226 | 6.11° C | 98% | 1009.2 hPa | 0 mm | - | 57 W/m² | - |
| 1777554923 | 6.11° C | 97% | 1009.1 hPa | 0 mm | - | 74 W/m² | - |
| 1777554620 | 5.56° C | 98% | 1009.2 hPa | 0 mm | - | 71 W/m² | - |
| 1777554316 | 5.56° C | 98% | 1009.3 hPa | 0 mm | - | 70 W/m² | - |
| 1777554014 | 5.56° C | 98% | 1009.4 hPa | 0 mm | - | 47 W/m² | - |
| 1777553710 | 5.56° C | 98% | 1009.1 hPa | 0 mm | - | 41 W/m² | - |
* Rain latest hour (hover to see other rain measurements)
** Current wind speed in m/s (hover to see current wind gust speed)